Powrót do katalogu

STARLINK-4314

AktywnyŁącznośćSSO
NORAD 53056·PAYLOAD·🇺🇸 United States

Wystrzelony Jul 11, 2022 z Vandenberg Space Force Base

Loading…

Następne Przeloty (najbliższe 24 godziny)

TLE

ŚwieżeSource: CelesTrak SupGP

Epoka: Sep 15, 2026, 01:19 UTC

1 53056C 22077P   26258.05534722 -.00036016  00000+0 -11196-2 0  2583
2 53056  97.2857  73.9165 0001465  85.7049  97.4554 15.33413194    18

Śledź STARLINK-4314 w czasie rzeczywistym z AllMySat

Download on the App Store